Showing default

COSMOS 1579, 15085

Orbit data source: Space-Track

COSMOS 1579, 15085 is a payload satellite owned by VMF (CIS) in LEO that was launched on Fri, 29 Jun 1984 UTC via a TSIKLON-2 launch vehicle from the Tyuratam Missile And Space Complex (TTMTR). Payload-class satellites include a variety of spacecraft equipped with specific instruments for various scientific and technological missions. These include communications satellites like Starlink; space stations such as the ISS; scientific satellites like the Hubble; Earth observation satellites from companies like Planet Labs, Umbra, and HawkEye 360; GPS; miniature CubeSats for education and research; and military/defense satellites.

Loading next visibility...
Identifier
15085, 1984-069A
Orbit
LEO
Country
Flag of CISCIS
Related business
Manufacturer
Kometa
Mission
Spacecraft
Bus & Motor
US-A REACTOR, Unknown motor
Mass
4,300 kg wet, 1,154 kg dry
Launch date (UTC)
1984-06-29 (41 years ago)
Launch vehicle
TSIKLON-2
Launch site
Tyuratam Missile And Space Complex (TTMTR)
Object type
Payload
Rocket body
Debris
Shape & HBR
Unknown
Radar Cross Section
Large (>1 m²)

Expand to show TLE details & history
Last TLE update: 10 hours ago

TLE from 10 hours ago
0 COSMOS 1579
1 15085U 84069A   25304.30499456 -.00000042  00000-0  40116-4 0  9993
2 15085  65.0508 317.8265 0033227 121.0219 239.4113 13.86203827 94051
Epoch: 2025-10-31T07:19Z
TLE epoch observation values (Epoch: 2025-10-31T07:19:11.529Z)
Latitude
-0.00003°
Longitude
168.17711°
Altitude
956.337 km
Speed
7.368 km/s
True Right ascension
21h 11m 18s
True Declination
0° 00' 00"
Sunlit
Object was in daylight at epoch
Visualization orbit readout
Latitude
Unknown
Longitude
Unknown
Altitude
Unknown
Speed
Unknown
Apparent Right ascension
Unknown
Apparent Declination
Unknown
Sunlit
N/A
Visualization observer readout
Local Sidereal Time
13:26:57
Azimuth
Unknown
Elevation
Unknown
Doppler factor
Unknown
Orbital elements
Apogee altitude
964.885 km
Perigee altitude
916.249 km
Semi-major axis
7,318.704 km
Eccentricity
0.00332
Inclination
65.0508°
RAAN
317.8265°
Arg. of periapsis
121.0219°
True anomaly
239.08422°
Mean anomaly
239.4113°
Eccentric anomaly
239.24769°
Mean motion
3.46651 °/min
Orbital period
103.85 mins
BSTAR
0.000040116
Loading maneuver chart data...
Computing Atmospheric mass density...

Documentation

Showing up to 5 results
|